Weather History for KFET - October, 2013

Change the Weather History Date:

Monday, October 28, 2013

  Actual Average Record
Temperature  
Mean Temperature 46 °F -  
Max Temperature 52 °F 59 °F 118 °F (2002)
Min Temperature 39 °F 37 °F 17 °F (1969)
Degree Days  
Heating Degree Days 20    
Moisture  
Dew Point 37 °F    
Average Humidity 70    
Maximum Humidity 85    
Minimum Humidity 55    
Precipitation  
Precipitation 0.00 in - - ()
Sea Level Pressure  
Sea Level Pressure 30.13 in    
Wind  
Wind Speed 9 mph (NE)    
Max Wind Speed 18 mph    
Max Gust Speed 26 mph    
Visibility 10 miles    
Events Rain , Thunderstorm    
Averages and records for this station are not official NWS values.
T = Trace of Precipitation, MM = Missing Value Source: NWS Daily Summary

Daily Weather History Graph

Daily Weather History Graph

Search for Another Location

Airport or City:

Trip Planner

Search our weather history database for the weather conditions in past years. The results will help you decide how hot, cold, wet, or windy it might be!

Date:

Astronomy

Oct. 28, 2013 Rise Set
Actual Time 7:53 AM CDT 6:25 PM CDT
Civil Twilight 7:24 AM CDT 6:54 PM CDT
Nautical Twilight 6:52 AM CDT 7:26 PM CDT
Astronomical Twilight 6:20 AM CDT 7:58 PM CDT
Moon 1:43 AM CDT (10/28) 3:12 PM CDT (10/28)
Length of Visible Light 11h 29m
Length of Day
10h 32m
Waning Crescent, 34% of the Moon is Illuminated
Oct 28
Waning Crescent
Nov 3
New
Nov 9
First Quarter
Nov 17
Full
Nov 25
Last Quarter

Hourly Weather History & Observations

Time (CDT) Temp. Windchill Dew Point Humidity Pressure Visibility Wind Dir Wind Speed Gust Speed Precip Events Conditions
12:15 AM 48.6 °F - 38.7 °F 69% 29.96 in 10.0 mi NE 6.9 mph - N/A   Clear
12:35 AM 48.6 °F - 38.3 °F 68% 29.97 in 10.0 mi NNE 6.9 mph - N/A   Clear
12:55 AM 48.2 °F - 37.4 °F 66% 29.98 in 10.0 mi NNE 6.9 mph - N/A   Clear
1:15 AM 48.0 °F - 37.2 °F 66% 29.99 in 10.0 mi NNE 4.6 mph - N/A   Clear
1:35 AM 47.3 °F - 36.9 °F 67% 29.99 in 10.0 mi NNE 6.9 mph - N/A   Clear
1:55 AM 46.9 °F - 36.7 °F 68% 29.99 in 10.0 mi NNE 6.9 mph - N/A   Clear
2:15 AM 46.2 °F 42.7 °F 36.5 °F 69% 30.00 in 10.0 mi NNE 6.9 mph - N/A   Clear
2:35 AM 45.9 °F 42.3 °F 36.5 °F 70% 30.01 in 10.0 mi NNE 6.9 mph - N/A   Clear
2:55 AM 45.5 °F 42.5 °F 36.1 °F 70% 30.02 in 10.0 mi NNE 5.8 mph - N/A   Clear
3:15 AM 44.8 °F 40.4 °F 36.0 °F 71% 30.03 in 10.0 mi NNE 8.1 mph - N/A   Clear
3:35 AM 44.2 °F 41.0 °F 36.0 °F 73% 30.03 in 10.0 mi NNE 5.8 mph - N/A   Clear
3:55 AM 43.5 °F 38.3 °F 35.8 °F 74% 30.03 in 10.0 mi NE 9.2 mph - N/A   Clear
4:15 AM 42.8 °F 38.0 °F 35.8 °F 76% 30.03 in 10.0 mi NE 8.1 mph - N/A   Clear
4:35 AM 42.8 °F 38.6 °F 35.6 °F 76% 30.04 in 10.0 mi NE 6.9 mph - N/A   Clear
4:55 AM 42.4 °F 37.0 °F 35.6 °F 77% 30.04 in 10.0 mi NNE 9.2 mph - N/A   Clear
5:15 AM 42.1 °F 36.1 °F 35.6 °F 78% 30.05 in 10.0 mi NNE 10.4 mph 16.1 mph N/A   Clear
5:35 AM 41.9 °F 38.2 °F 35.6 °F 78% 30.06 in 10.0 mi NNE 5.8 mph - N/A   Clear
5:55 AM 41.4 °F 37.6 °F 35.2 °F 79% 30.08 in 10.0 mi NE 5.8 mph - N/A   Scattered Clouds
6:15 AM 41.2 °F 36.0 °F 34.9 °F 78% 30.10 in 10.0 mi NE 8.1 mph - N/A   Scattered Clouds
6:35 AM 40.6 °F 36.0 °F 34.9 °F 80% 30.11 in 10.0 mi NNE 6.9 mph - N/A   Clear
6:55 AM 40.1 °F 35.3 °F 34.9 °F 82% 30.12 in 10.0 mi NNE 6.9 mph - N/A   Clear
7:15 AM 40.1 °F 34.7 °F 34.9 °F 82% 30.13 in 10.0 mi NNE 8.1 mph - N/A   Clear
7:35 AM 39.6 °F 37.4 °F 34.7 °F 83% 30.13 in 10.0 mi NNE 3.5 mph - N/A   Scattered Clouds
7:55 AM 39.6 °F 35.4 °F 34.9 °F 83% 30.13 in 10.0 mi NE 5.8 mph - N/A   Scattered Clouds
8:15 AM 40.1 °F 36.9 °F 34.9 °F 82% 30.15 in 10.0 mi NE 4.6 mph - N/A   Scattered Clouds
8:35 AM 40.3 °F 34.9 °F 34.9 °F 81% 30.16 in 10.0 mi NE 8.1 mph - N/A   Clear
8:55 AM 40.5 °F 35.1 °F 34.7 °F 80% 30.17 in 10.0 mi NE 8.1 mph 16.1 mph N/A   Clear
9:15 AM 40.6 °F 35.4 °F 34.9 °F 80% 30.17 in 10.0 mi NE 8.1 mph - N/A   Clear
9:35 AM 41.0 °F 36.4 °F 34.9 °F 79% 30.19 in 10.0 mi NE 6.9 mph 18.4 mph N/A   Clear
9:55 AM 42.3 °F 35.5 °F 35.1 °F 76% 30.19 in 10.0 mi ENE 12.7 mph 19.6 mph N/A   Clear
10:15 AM 43.0 °F 36.0 °F 34.9 °F 73% 30.20 in 10.0 mi NE 13.8 mph 19.6 mph N/A   Clear
10:35 AM 43.3 °F 36.1 °F 34.9 °F 72% 30.19 in 10.0 mi ENE 15.0 mph 26.5 mph N/A   Clear
10:55 AM 44.4 °F 37.5 °F 34.9 °F 69% 30.19 in 10.0 mi NE 15.0 mph 23.0 mph N/A   Clear
11:15 AM 45.5 °F 38.1 °F 35.4 °F 68% 30.18 in 10.0 mi ENE 18.4 mph 25.3 mph N/A   Clear
11:35 AM 46.6 °F - 35.8 °F 66% 30.19 in 10.0 mi ENE 10.4 mph 18.4 mph N/A   Clear
11:55 AM 47.3 °F - 35.6 °F 64% 30.20 in 10.0 mi ENE 11.5 mph - N/A   Clear
12:15 PM 47.5 °F - 35.8 °F 64% 30.20 in 10.0 mi NE 9.2 mph - N/A   Clear
12:35 PM 47.5 °F - 35.6 °F 63% 30.20 in 10.0 mi NE 10.4 mph 17.3 mph N/A   Scattered Clouds
12:55 PM 49.3 °F - 36.5 °F 61% 30.20 in 10.0 mi ENE 11.5 mph 16.1 mph N/A   Mostly Cloudy
1:15 PM 50.5 °F - 36.5 °F 59% 30.19 in 10.0 mi NE 12.7 mph 19.6 mph N/A   Scattered Clouds
1:35 PM 50.9 °F - 36.9 °F 59% 30.18 in 10.0 mi NNE 9.2 mph - N/A   Clear
1:55 PM 50.7 °F - 36.5 °F 58% 30.17 in 10.0 mi NE 15.0 mph 19.6 mph N/A   Clear
2:15 PM 51.1 °F - 36.7 °F 58% 30.17 in 10.0 mi NNE 15.0 mph 19.6 mph N/A   Clear
2:35 PM 52.0 °F - 36.7 °F 56% 30.16 in 10.0 mi NE 11.5 mph 18.4 mph N/A   Clear
2:55 PM 51.6 °F - 36.7 °F 57% 30.16 in 10.0 mi NE 11.5 mph 18.4 mph N/A   Clear
3:15 PM 51.8 °F - 36.7 °F 56% 30.16 in 10.0 mi NE 11.5 mph 19.6 mph N/A   Clear
3:35 PM 52.2 °F - 36.9 °F 56% 30.15 in 10.0 mi ENE 15.0 mph 20.7 mph N/A   Clear
3:55 PM 52.7 °F - 36.9 °F 55% 30.14 in 10.0 mi ENE 15.0 mph 23.0 mph N/A   Clear
4:15 PM 52.5 °F - 37.0 °F 56% 30.15 in 10.0 mi NE 11.5 mph 23.0 mph N/A   Clear
4:35 PM 52.2 °F - 37.0 °F 56% 30.15 in 10.0 mi NE 12.7 mph 23.0 mph N/A   Clear
4:55 PM 51.8 °F - 37.0 °F 57% 30.16 in 10.0 mi NE 11.5 mph 18.4 mph N/A   Clear
5:15 PM 51.6 °F - 36.9 °F 57% 30.16 in 10.0 mi NE 13.8 mph 18.4 mph N/A   Clear
5:35 PM 51.3 °F - 36.9 °F 58% 30.16 in 10.0 mi ENE 13.8 mph 18.4 mph N/A   Clear
5:55 PM 50.9 °F - 37.0 °F 59% 30.16 in 10.0 mi ENE 10.4 mph 20.7 mph N/A   Clear
6:15 PM 50.0 °F - 37.4 °F 62% 30.15 in 10.0 mi NE 12.7 mph 23.0 mph N/A   Scattered Clouds
6:35 PM 49.3 °F - 37.2 °F 63% 30.16 in 10.0 mi ENE 15.0 mph 21.9 mph N/A   Scattered Clouds
6:55 PM 48.9 °F - 37.4 °F 64% 30.16 in 10.0 mi ENE 13.8 mph 19.6 mph N/A   Clear
7:15 PM 48.7 °F - 37.6 °F 65% 30.17 in 10.0 mi ENE 13.8 mph 20.7 mph N/A   Scattered Clouds
7:35 PM 48.6 °F - 37.6 °F 66% 30.17 in 10.0 mi ENE 13.8 mph 20.7 mph N/A   Mostly Cloudy
7:55 PM 48.4 °F - 38.3 °F 68% 30.18 in 10.0 mi ENE 13.8 mph 19.6 mph N/A Rain Light Rain
8:15 PM 47.7 °F - 39.2 °F 72% 30.19 in 10.0 mi ENE 11.5 mph 19.6 mph N/A Rain Light Rain
8:35 PM 47.8 °F - 38.8 °F 71% 30.19 in 10.0 mi NE 11.5 mph 18.4 mph N/A   Overcast
8:55 PM 46.6 °F - 40.1 °F 78% 30.17 in 10.0 mi ENE 13.8 mph - N/A Rain Light Rain
9:15 PM 46.9 °F - 39.9 °F 77% 30.17 in 10.0 mi ENE 13.8 mph 21.9 mph N/A Thunderstorm Overcast
9:35 PM 46.9 °F - 39.9 °F 77% 30.16 in 10.0 mi ENE 16.1 mph 21.9 mph N/A Thunderstorm Overcast
9:55 PM 46.6 °F - 40.1 °F 78% 30.16 in 10.0 mi ENE 16.1 mph 21.9 mph N/A   Overcast
10:15 PM 46.8 °F - 39.9 °F 77% 30.17 in 10.0 mi East 12.7 mph 17.3 mph N/A   Overcast
10:35 PM 46.4 °F 41.1 °F 39.6 °F 77% 30.17 in 10.0 mi ENE 11.5 mph 18.4 mph N/A Thunderstorm Thunderstorm
10:55 PM 46.4 °F 43.5 °F 39.4 °F 77% 30.21 in 10.0 mi NE 5.8 mph - N/A   Overcast
11:15 PM 45.5 °F 39.6 °F 39.9 °F 81% 30.17 in 10.0 mi ENE 12.7 mph 17.3 mph N/A Thunderstorm Overcast
11:35 PM 45.0 °F 40.6 °F 40.1 °F 83% 30.19 in 10.0 mi NE 8.1 mph - N/A Rain , Thunderstorm Light Thunderstorms and Rain
11:55 PM 44.6 °F 39.7 °F 40.3 °F 85% 30.20 in 10.0 mi ENE 9.2 mph - N/A Thunderstorm Overcast